2022/08/02 23:33:31+0000,-36.13,-46.77,-32.37,-49.08,-56.92,-58.21
2022/08/02 23:34:23+0000,-36.48,-45.53,-32.26,-49.85,-56.69,-57.71
2022/08/02 23:35:15+0000,-36.65,-43.63,-32.42,-49.10,-57.11,-58.29
2022/08/02 23:36:07+0000,-34.82,-44.72,-32.23,-49.64,-57.22,-58.63
2022/08/02 23:36:59+0000,-35.75,-43.89,-32.57,-48.99,-57.07,-58.34
2022/08/02 23:37:51+0000,-36.55,-41.78,-31.79,-49.59,-56.52,-58.37
2022/08/02 23:38:43+0000,-36.20,-41.70,-33.00,-49.93,-56.69,-58.03
2022/08/02 23:39:35+0000,-36.41,-42.16,-32.15,-50.55,-57.18,-58.03
2022/08/02 23:40:27+0000,-36.52,-41.25,-32.24,-48.71,-56.89,-58.42
2022/08/02 23:41:26+0000,-36.40,-41.99,-32.19,-49.81,-57.25,-58.70
2022/08/02 23:42:18+0000,-36.14,-42.50,-31.95,-50.23,-57.24,-58.41
2022/08/02 23:43:10+0000,-36.05,-42.84,-31.77,-49.85,-56.47,-58.55
2022/08/02 23:44:02+0000,-36.66,-42.60,-32.01,-49.50,-56.94,-58.10
2022/08/02 23:44:54+0000,-37.24,-42.84,-32.02,-49.67,-56.65,-58.47
2022/08/02 23:45:46+0000,-36.50,-42.78,-31.75,-49.35,-56.82,-58.55
2022/08/02 23:46:38+0000,-36.24,-41.78,-31.79,-49.33,-56.80,-58.16
2022/08/02 23:47:30+0000,-36.44,-41.69,-31.72,-49.70,-56.43,-58.24
2022/08/02 23:48:22+0000,-36.46,-44.72,-31.43,-49.21,-56.40,-58.02
2022/08/02 23:49:14+0000,-35.05,-44.90,-32.19,-50.26,-56.43,-58.30
2022/08/02 23:50:06+0000,-35.30,-43.68,-31.85,-48.91,-56.42,-57.79
2022/08/02 23:51:05+0000,-35.31,-43.16,-31.76,-50.78,-56.41,-58.77
2022/08/02 23:51:57+0000,-36.90,-44.43,-31.77,-49.74,-57.08,-58.41
2022/08/02 23:52:49+0000,-35.35,-45.99,-31.72,-50.92,-56.57,-57.65
2022/08/02 23:53:41+0000,-35.58,-42.14,-32.47,-49.61,-56.91,-58.60
2022/08/02 23:54:33+0000,-36.19,-43.74,-32.03,-48.49,-56.93,-58.84
2022/08/02 23:55:25+0000,-36.86,-43.83,-32.09,-49.91,-57.30,-57.95
2022/08/02 23:56:18+0000,-36.29,-44.37,-32.06,-49.44,-56.98,-57.75
2022/08/02 23:57:10+0000,-36.67,-43.34,-32.31,-49.30,-56.63,-57.95
2022/08/02 23:58:02+0000,-36.90,-42.23,-31.85,-48.48,-54.51,-58.08
2022/08/02 23:58:54+0000,-35.42,-44.01,-31.74,-50.11,-56.16,-58.62
2022/08/02 23:59:46+0000,-36.38,-42.47,-32.21,-49.34,-56.61,-58.33
2022/08/03 00:00:38+0000,-35.49,-44.11,-31.49,-49.62,-56.68,-57.67
2022/08/03 00:01:41+0000,-34.84,-44.45,-32.41,-49.46,-56.45,-58.61
2022/08/03 00:02:33+0000,-35.60,-41.79,-32.11,-50.74,-56.38,-58.65
2022/08/03 00:03:25+0000,-36.69,-42.69,-32.12,-50.45,-57.39,-57.85
2022/08/03 00:04:17+0000,-36.28,-41.78,-31.51,-50.29,-57.13,-58.24
2022/08/03 00:05:09+0000,-35.87,-44.17,-31.61,-49.55,-57.70,-58.45
2022/08/03 00:06:01+0000,-35.98,-43.94,-31.86,-49.46,-57.87,-58.50
2022/08/03 00:06:53+0000,-36.82,-44.54,-31.85,-50.18,-57.65,-58.51
2022/08/03 00:07:45+0000,-32.03,-42.33,-32.09,-48.81,-57.69,-58.54
2022/08/03 00:08:37+0000,-36.40,-44.89,-31.99,-49.33,-57.33,-58.26
2022/08/03 00:09:29+0000,-35.63,-44.46,-31.58,-49.66,-57.42,-58.65
2022/08/03 00:10:21+0000,-35.99,-44.09,-32.02,-50.67,-57.40,-58.77
2022/08/03 00:11:21+0000,-36.49,-42.48,-31.82,-48.89,-57.61,-58.92
2022/08/03 00:12:13+0000,-36.39,-44.42,-32.41,-49.64,-56.93,-58.14
2022/08/03 00:13:05+0000,-36.10,-44.71,-31.95,-49.63,-57.92,-58.77
2022/08/03 00:13:57+0000,-36.07,-45.44,-32.16,-49.35,-57.51,-58.20
2022/08/03 00:14:49+0000,-35.66,-46.10,-31.83,-51.59,-57.61,-58.26
2022/08/03 00:15:41+0000,-36.26,-45.80,-31.03,-48.35,-57.59,-58.49
2022/08/03 00:16:33+0000,-36.95,-45.74,-32.01,-51.30,-57.59,-58.51
2022/08/03 00:17:25+0000,-36.29,-45.29,-32.06,-49.31,-57.97,-58.49
2022/08/03 00:18:17+0000,-36.85,-46.08,-31.15,-48.71,-58.29,-58.94
2022/08/03 00:19:09+0000,-37.18,-45.51,-32.04,-47.72,-56.87,-58.75
2022/08/03 00:20:01+0000,-36.67,-46.50,-32.18,-46.91,-57.51,-57.91
2022/08/03 00:21:01+0000,-35.87,-44.49,-32.14,-46.51,-58.04,-57.67
2022/08/03 00:21:53+0000,-36.48,-45.41,-32.31,-45.84,-57.50,-58.15
2022/08/03 00:22:45+0000,-35.94,-45.62,-31.67,-50.63,-57.65,-58.09
2022/08/03 00:23:37+0000,-35.89,-45.82,-32.47,-49.21,-57.12,-58.14
2022/08/03 00:24:29+0000,-36.04,-44.53,-31.96,-46.99,-57.34,-58.25
2022/08/03 00:25:21+0000,-35.71,-45.29,-32.25,-47.16,-57.27,-58.72
2022/08/03 00:26:13+0000,-36.22,-45.00,-31.81,-50.19,-57.43,-58.52
2022/08/03 00:27:05+0000,-36.35,-45.27,-31.75,-51.31,-57.17,-58.49
2022/08/03 00:27:57+0000,-36.78,-45.84,-31.55,-47.86,-57.47,-58.14
2022/08/03 00:28:49+0000,-36.67,-45.54,-31.92,-50.61,-56.92,-58.56
2022/08/03 00:29:41+0000,-36.18,-45.30,-31.46,-49.98,-57.07,-57.61
2022/08/03 00:30:33+0000,-36.96,-45.10,-32.69,-50.05,-57.35,-58.55
2022/08/03 00:31:32+0000,-37.50,-45.54,-32.09,-50.24,-57.04,-58.20
2022/08/03 00:32:24+0000,-36.88,-45.71,-31.98,-50.14,-57.85,-58.47
2022/08/03 00:33:16+0000,-36.42,-46.23,-31.67,-49.23,-57.62,-58.94
2022/08/03 00:34:08+0000,-36.75,-44.92,-32.15,-49.67,-57.42,-58.11
2022/08/03 00:35:00+0000,-36.61,-44.78,-31.26,-46.82,-57.38,-58.51
2022/08/03 00:35:52+0000,-35.91,-46.03,-32.00,-46.53,-57.58,-58.36
2022/08/03 00:36:44+0000,-35.85,-45.62,-32.10,-50.14,-57.06,-58.02
2022/08/03 00:37:36+0000,-36.02,-45.29,-31.80,-49.33,-57.56,-58.40
2022/08/03 00:38:28+0000,-36.19,-45.86,-31.65,-48.69,-57.67,-58.45
2022/08/03 00:39:20+0000,-37.13,-46.07,-31.79,-50.81,-57.17,-58.30
2022/08/03 00:40:12+0000,-36.82,-46.84,-31.82,-47.12,-57.32,-58.48
2022/08/03 00:41:11+0000,-36.47,-46.02,-31.94,-47.05,-57.55,-57.86
2022/08/03 00:42:03+0000,-36.58,-44.21,-32.19,-49.64,-57.03,-58.71
2022/08/03 00:42:55+0000,-36.94,-45.27,-32.17,-50.20,-57.46,-57.86
2022/08/03 00:43:47+0000,-36.52,-45.21,-31.99,-47.09,-56.76,-58.46
2022/08/03 00:44:39+0000,-36.27,-45.60,-31.89,-46.61,-57.24,-58.47
2022/08/03 00:45:31+0000,-35.44,-45.05,-31.88,-49.21,-57.31,-57.97
2022/08/03 00:46:24+0000,-35.89,-44.78,-31.81,-49.73,-57.49,-59.13
2022/08/03 00:47:16+0000,-35.80,-45.01,-32.22,-47.37,-57.53,-58.42
2022/08/03 00:48:08+0000,-35.92,-45.05,-31.56,-47.67,-57.20,-58.07
2022/08/03 00:49:00+0000,-36.34,-45.25,-32.59,-49.75,-57.51,-58.68
2022/08/03 00:49:52+0000,-36.60,-45.45,-31.59,-50.05,-57.50,-58.52
2022/08/03 00:50:44+0000,-36.81,-44.30,-31.90,-46.72,-57.10,-58.21
2022/08/03 00:51:43+0000,-36.73,-44.60,-32.29,-47.73,-57.44,-58.42
2022/08/03 00:52:35+0000,-36.72,-44.98,-32.13,-50.71,-57.55,-58.23
2022/08/03 00:53:27+0000,-37.54,-45.04,-32.10,-49.47,-57.51,-58.21
2022/08/03 00:54:19+0000,-36.55,-45.79,-32.31,-47.42,-58.15,-58.04
2022/08/03 00:55:11+0000,-36.49,-44.78,-32.21,-46.82,-56.66,-58.34
2022/08/03 00:56:03+0000,-37.27,-45.33,-32.24,-49.23,-56.47,-58.36
2022/08/03 00:56:55+0000,-37.28,-45.15,-31.86,-48.77,-55.85,-59.02
2022/08/03 00:57:47+0000,-37.33,-44.87,-32.15,-47.87,-56.05,-58.12
2022/08/03 00:58:39+0000,-36.83,-44.28,-32.32,-49.95,-56.06,-58.32
2022/08/03 00:59:31+0000,-36.69,-45.13,-32.11,-45.87,-55.92,-57.62
2022/08/03 01:00:23+0000,-37.01,-45.25,-32.27,-46.15,-56.14,-58.14
2022/08/03 01:01:23+0000,-37.59,-44.54,-32.19,-45.82,-56.24,-58.20
2022/08/03 01:02:15+0000,-37.94,-44.96,-32.27,-49.69,-55.84,-58.20
2022/08/03 01:03:07+0000,-36.74,-45.36,-32.08,-49.63,-56.06,-57.94
2022/08/03 01:03:59+0000,-36.15,-44.47,-32.10,-46.67,-55.80,-58.34
2022/08/03 01:04:51+0000,-37.45,-44.31,-32.11,-45.96,-55.72,-58.22
2022/08/03 01:05:43+0000,-36.20,-43.38,-32.07,-48.50,-56.03,-57.86
2022/08/03 01:06:35+0000,-37.19,-44.51,-32.40,-50.32,-55.96,-58.30
2022/08/03 01:07:27+0000,-36.77,-45.98,-31.99,-47.16,-55.88,-58.34
2022/08/03 01:08:19+0000,-38.37,-45.78,-31.97,-50.40,-55.94,-58.10
2022/08/03 01:09:11+0000,-37.59,-44.79,-32.37,-49.20,-56.10,-58.24
2022/08/03 01:10:03+0000,-36.59,-44.68,-32.18,-49.99,-56.13,-58.09
2022/08/03 01:11:02+0000,-37.94,-44.31,-32.20,-46.22,-55.78,-58.61
2022/08/03 01:11:54+0000,-37.10,-44.11,-32.75,-46.24,-55.52,-58.24
2022/08/03 01:12:46+0000,-36.63,-44.20,-32.64,-48.62,-56.36,-58.10
2022/08/03 01:13:38+0000,-37.51,-44.27,-32.17,-49.90,-55.33,-58.30
2022/08/03 01:14:30+0000,-37.25,-45.20,-32.77,-45.71,-54.09,-58.66
2022/08/03 01:15:22+0000,-37.03,-44.54,-32.21,-46.93,-55.80,-58.16
2022/08/03 01:16:14+0000,-37.35,-44.58,-32.34,-46.75,-55.93,-58.53
2022/08/03 01:17:06+0000,-37.67,-43.84,-32.42,-46.80,-55.88,-57.93
2022/08/03 01:17:58+0000,-36.44,-42.54,-32.16,-48.44,-55.55,-58.33
2022/08/03 01:18:50+0000,-37.38,-44.51,-32.38,-48.78,-56.00,-58.46
2022/08/03 01:19:42+0000,-37.46,-43.89,-32.40,-47.09,-55.67,-57.83
2022/08/03 01:20:34+0000,-37.21,-44.48,-33.11,-50.47,-56.28,-58.28
2022/08/03 01:21:34+0000,-37.16,-43.85,-32.73,-49.49,-56.08,-58.41
2022/08/03 01:22:26+0000,-36.84,-44.19,-32.61,-48.70,-55.73,-58.74
2022/08/03 01:23:18+0000,-38.64,-43.23,-32.03,-46.62,-55.59,-57.23
2022/08/03 01:24:10+0000,-36.41,-44.14,-32.49,-46.27,-56.47,-57.87
2022/08/03 01:25:02+0000,-35.61,-44.94,-32.05,-49.06,-56.04,-58.17
2022/08/03 01:25:54+0000,-37.08,-45.74,-31.80,-48.85,-56.12,-57.88
2022/08/03 01:26:46+0000,-38.05,-44.78,-31.85,-45.69,-56.37,-58.09
2022/08/03 01:27:38+0000,-36.28,-44.91,-32.44,-46.86,-56.23,-58.34
2022/08/03 01:28:30+0000,-37.55,-45.81,-32.27,-48.71,-55.36,-58.13
2022/08/03 01:29:22+0000,-37.45,-45.44,-32.09,-49.46,-56.30,-57.65
2022/08/03 01:30:14+0000,-37.45,-45.35,-32.11,-46.37,-55.73,-57.45
2022/08/03 01:31:13+0000,-36.13,-45.03,-31.87,-46.92,-55.79,-58.43
2022/08/03 01:32:05+0000,-36.46,-43.94,-32.41,-49.00,-55.53,-58.20
2022/08/03 01:32:57+0000,-37.10,-41.24,-32.53,-48.51,-55.68,-57.90
2022/08/03 01:33:49+0000,-37.49,-42.36,-32.47,-48.98,-55.49,-58.19
2022/08/03 01:34:41+0000,-35.05,-41.57,-32.09,-46.66,-55.41,-58.56
2022/08/03 01:35:33+0000,-36.83,-41.44,-32.38,-48.35,-53.26,-57.71
2022/08/03 01:36:25+0000,-37.88,-43.77,-31.48,-47.98,-55.59,-58.38
2022/08/03 01:37:17+0000,-36.48,-41.56,-32.31,-45.92,-55.29,-58.05
2022/08/03 01:38:09+0000,-38.05,-41.23,-32.65,-46.58,-53.07,-58.03
2022/08/03 01:39:01+0000,-36.84,-41.34,-31.79,-47.04,-56.00,-57.99
2022/08/03 01:39:54+0000,-37.36,-40.72,-33.06,-47.63,-55.40,-58.81
2022/08/03 01:40:46+0000,-36.99,-41.23,-32.33,-46.24,-55.97,-58.13
2022/08/03 01:41:45+0000,-37.28,-42.16,-32.71,-45.93,-56.65,-58.02
2022/08/03 01:42:37+0000,-36.73,-43.60,-31.91,-45.77,-53.37,-57.70
2022/08/03 01:43:29+0000,-36.83,-43.67,-32.57,-48.43,-53.26,-57.78
2022/08/03 01:44:21+0000,-37.39,-43.70,-32.49,-48.66,-56.08,-58.39
2022/08/03 01:45:13+0000,-37.25,-41.41,-32.36,-45.75,-55.28,-58.02
2022/08/03 01:46:05+0000,-36.94,-42.14,-31.71,-49.49,-53.49,-57.93
2022/08/03 01:46:57+0000,-36.94,-44.36,-32.33,-48.18,-53.05,-58.62
2022/08/03 01:47:49+0000,-36.03,-43.87,-31.85,-49.66,-55.73,-58.34
2022/08/03 01:48:41+0000,-36.59,-43.28,-31.77,-48.67,-55.58,-57.63
2022/08/03 01:49:33+0000,-36.62,-42.37,-32.13,-48.96,-53.28,-57.92
2022/08/03 01:50:26+0000,-37.04,-44.15,-32.16,-48.95,-55.74,-58.22
2022/08/03 01:51:25+0000,-36.78,-43.44,-32.56,-48.57,-55.54,-57.89
2022/08/03 01:52:17+0000,-37.09,-42.58,-31.91,-47.59,-55.09,-58.49
2022/08/03 01:53:09+0000,-37.06,-43.40,-31.89,-48.57,-53.19,-58.29
2022/08/03 01:54:01+0000,-36.80,-41.51,-32.17,-46.87,-53.17,-58.19
2022/08/03 01:54:53+0000,-36.29,-42.04,-32.38,-48.46,-55.92,-58.56
2022/08/03 01:55:45+0000,-37.13,-40.96,-31.91,-47.57,-56.22,-58.22
2022/08/03 01:56:37+0000,-36.36,-42.38,-32.31,-49.31,-54.27,-58.13
2022/08/03 01:57:29+0000,-37.47,-42.84,-31.70,-48.63,-54.11,-57.87
2022/08/03 01:58:21+0000,-37.95,-40.94,-31.81,-49.92,-57.29,-57.91
2022/08/03 01:59:13+0000,-37.56,-43.05,-32.20,-49.02,-56.39,-58.04
2022/08/03 02:00:05+0000,-35.93,-41.76,-32.03,-49.22,-54.05,-58.23
2022/08/03 02:01:05+0000,-35.82,-43.91,-32.68,-48.81,-56.47,-58.17
2022/08/03 02:01:57+0000,-36.79,-43.04,-32.09,-47.93,-56.52,-58.95
2022/08/03 02:02:49+0000,-37.85,-43.33,-31.39,-48.93,-56.90,-57.97
2022/08/03 02:03:41+0000,-36.15,-43.24,-32.24,-49.59,-57.26,-58.10
2022/08/03 02:04:33+0000,-36.50,-43.66,-31.93,-50.26,-56.05,-58.23
2022/08/03 02:05:26+0000,-37.02,-43.19,-31.49,-48.37,-55.68,-58.34
2022/08/03 02:06:18+0000,-35.76,-43.45,-32.14,-49.83,-55.62,-57.82
2022/08/03 02:07:10+0000,-37.20,-42.90,-32.27,-48.04,-56.12,-57.59
2022/08/03 02:08:02+0000,-37.89,-43.20,-31.69,-48.27,-55.52,-58.10
2022/08/03 02:08:54+0000,-36.07,-42.64,-32.14,-48.38,-55.24,-57.52
2022/08/03 02:09:46+0000,-37.51,-44.22,-32.35,-48.08,-55.53,-58.34
2022/08/03 02:10:38+0000,-37.27,-44.38,-32.17,-48.19,-55.90,-57.82
2022/08/03 02:11:38+0000,-37.31,-44.37,-31.80,-48.63,-55.39,-58.38
2022/08/03 02:12:30+0000,-36.49,-44.42,-32.28,-48.83,-55.94,-57.57
2022/08/03 02:13:22+0000,-37.08,-44.29,-32.36,-47.64,-54.98,-58.01
2022/08/03 02:14:14+0000,-37.44,-44.77,-31.93,-46.94,-56.86,-57.96
2022/08/03 02:15:06+0000,-37.06,-44.02,-31.00,-48.38,-57.47,-57.73
2022/08/03 02:15:58+0000,-35.95,-43.91,-30.88,-46.74,-53.76,-58.64
2022/08/03 02:16:50+0000,-37.28,-44.90,-31.51,-50.01,-56.36,-58.14
2022/08/03 02:17:42+0000,-36.76,-43.32,-31.48,-49.02,-56.19,-57.77
2022/08/03 02:18:34+0000,-36.16,-44.13,-31.33,-49.87,-53.39,-57.85
2022/08/03 02:19:26+0000,-35.62,-44.04,-31.07,-48.42,-57.32,-58.69
2022/08/03 02:20:18+0000,-36.81,-41.60,-31.74,-49.12,-55.59,-57.92
2022/08/03 02:21:18+0000,-36.86,-41.74,-32.06,-50.26,-56.92,-57.65
2022/08/03 02:22:10+0000,-36.25,-43.20,-32.20,-48.18,-56.51,-57.13
2022/08/03 02:23:02+0000,-35.88,-42.16,-32.05,-48.39,-53.04,-57.97
2022/08/03 02:23:54+0000,-36.91,-42.02,-32.12,-48.42,-56.52,-57.64
2022/08/03 02:24:46+0000,-36.52,-44.59,-32.40,-47.15,-56.60,-57.69
2022/08/03 02:25:38+0000,-35.86,-43.83,-31.98,-47.27,-52.68,-58.18
2022/08/03 02:26:30+0000,-37.37,-43.79,-31.45,-47.32,-52.99,-58.41
2022/08/03 02:27:22+0000,-36.37,-43.98,-32.39,-48.46,-55.94,-57.95
2022/08/03 02:28:14+0000,-36.30,-43.20,-32.04,-48.85,-56.59,-58.38
2022/08/03 02:29:06+0000,-36.32,-43.57,-31.73,-49.15,-54.97,-57.52
2022/08/03 02:29:58+0000,-37.00,-42.59,-32.36,-47.54,-55.60,-57.88
2022/08/03 02:30:50+0000,-36.23,-43.61,-32.27,-49.95,-56.24,-58.13
2022/08/03 02:31:49+0000,-35.91,-43.46,-32.33,-50.63,-57.04,-57.69
2022/08/03 02:32:41+0000,-37.36,-44.86,-32.37,-49.63,-56.96,-58.04
2022/08/03 02:33:33+0000,-36.07,-44.91,-32.06,-49.59,-52.94,-57.99
2022/08/03 02:34:25+0000,-36.22,-44.30,-31.78,-48.34,-56.83,-58.04
2022/08/03 02:35:17+0000,-35.95,-43.54,-32.09,-47.93,-56.42,-58.25
2022/08/03 02:36:09+0000,-37.00,-43.50,-31.82,-48.24,-53.85,-57.83
2022/08/03 02:37:02+0000,-36.37,-42.98,-32.60,-47.64,-54.08,-58.08
2022/08/03 02:37:54+0000,-36.87,-43.66,-32.05,-48.32,-56.26,-58.29
2022/08/03 02:38:46+0000,-37.18,-43.57,-31.97,-45.54,-56.52,-58.04
2022/08/03 02:39:38+0000,-35.85,-43.98,-32.02,-46.40,-54.77,-58.55
2022/08/03 02:40:30+0000,-36.70,-42.64,-31.94,-48.82,-53.94,-58.07
2022/08/03 02:41:29+0000,-36.57,-43.98,-31.83,-47.93,-53.81,-58.23
2022/08/03 02:42:21+0000,-36.58,-44.36,-32.31,-49.09,-56.74,-58.79
2022/08/03 02:43:13+0000,-37.22,-44.31,-32.26,-46.48,-56.40,-57.80
2022/08/03 02:44:05+0000,-35.99,-43.65,-32.28,-50.36,-53.42,-57.80
2022/08/03 02:44:57+0000,-36.08,-43.15,-32.14,-48.85,-54.08,-57.85
2022/08/03 02:45:49+0000,-35.28,-44.10,-32.22,-50.26,-56.64,-58.24
2022/08/03 02:46:41+0000,-36.28,-43.85,-32.41,-46.82,-56.85,-58.32
2022/08/03 02:47:33+0000,-36.08,-43.53,-31.65,-49.46,-54.31,-58.28
2022/08/03 02:48:25+0000,-35.93,-43.80,-31.68,-48.83,-56.79,-58.03
2022/08/03 02:49:17+0000,-35.98,-44.80,-32.13,-47.83,-56.00,-58.42
2022/08/03 02:50:10+0000,-35.50,-44.12,-32.10,-46.47,-54.13,-58.01
2022/08/03 02:51:09+0000,-35.85,-43.90,-32.38,-46.00,-53.81,-58.15
2022/08/03 02:52:01+0000,-36.28,-44.02,-32.35,-46.22,-54.42,-58.02
2022/08/03 02:52:53+0000,-36.70,-43.58,-32.19,-48.57,-56.83,-58.36
2022/08/03 02:53:45+0000,-36.57,-43.40,-32.17,-45.95,-56.60,-58.54
2022/08/03 02:54:37+0000,-37.10,-43.76,-32.57,-46.27,-54.61,-58.15
2022/08/03 02:55:29+0000,-36.13,-43.88,-31.72,-48.40,-54.28,-57.29
2022/08/03 02:56:21+0000,-36.27,-42.54,-32.11,-50.11,-57.22,-57.64
2022/08/03 02:57:13+0000,-37.00,-43.26,-32.33,-45.29,-56.55,-58.13
2022/08/03 02:58:05+0000,-36.03,-44.02,-32.89,-50.88,-54.79,-57.84
2022/08/03 02:58:57+0000,-37.57,-43.39,-32.19,-49.86,-56.51,-58.34
2022/08/03 02:59:49+0000,-35.83,-43.25,-31.99,-49.99,-55.78,-58.29
2022/08/03 03:00:41+0000,-35.93,-43.51,-32.15,-46.71,-56.95,-58.07
2022/08/03 03:01:41+0000,-35.78,-43.75,-32.08,-47.03,-56.40,-57.84
2022/08/03 03:02:33+0000,-36.64,-43.33,-31.70,-50.25,-54.58,-57.68
2022/08/03 03:03:25+0000,-36.98,-43.92,-32.39,-48.87,-57.21,-58.49
2022/08/03 03:04:17+0000,-36.33,-41.69,-32.56,-50.00,-56.95,-58.23
2022/08/03 03:05:09+0000,-35.34,-43.82,-32.44,-45.73,-56.57,-58.20
2022/08/03 03:06:01+0000,-35.99,-41.71,-31.70,-48.17,-54.44,-58.41
2022/08/03 03:06:53+0000,-36.95,-43.04,-31.93,-47.23,-56.71,-58.25
2022/08/03 03:07:45+0000,-37.07,-43.53,-31.81,-46.69,-56.59,-57.67
2022/08/03 03:08:37+0000,-36.52,-41.89,-32.35,-44.92,-55.05,-58.20
2022/08/03 03:09:29+0000,-35.62,-43.25,-31.67,-47.65,-55.00,-57.41
2022/08/03 03:10:22+0000,-36.60,-44.87,-32.02,-47.67,-56.52,-58.31
2022/08/03 03:11:21+0000,-36.82,-43.55,-32.16,-47.71,-56.72,-58.67
2022/08/03 03:12:13+0000,-36.31,-43.84,-32.15,-45.51,-56.76,-57.81
2022/08/03 03:13:05+0000,-36.51,-41.38,-31.81,-45.44,-54.42,-58.13
2022/08/03 03:13:57+0000,-36.69,-42.20,-32.06,-48.29,-54.10,-57.99
2022/08/03 03:14:49+0000,-36.71,-43.08,-32.14,-51.18,-56.88,-58.84
2022/08/03 03:15:41+0000,-36.25,-42.46,-32.58,-46.00,-57.19,-58.25
2022/08/03 03:16:33+0000,-35.49,-43.75,-32.18,-50.06,-54.86,-58.80
2022/08/03 03:17:25+0000,-36.54,-44.05,-31.80,-46.01,-56.81,-58.72
2022/08/03 03:18:17+0000,-36.63,-42.00,-32.31,-49.48,-57.30,-58.67
2022/08/03 03:19:10+0000,-36.61,-42.28,-31.93,-47.45,-57.56,-58.22
2022/08/03 03:20:02+0000,-35.30,-43.91,-31.95,-45.17,-53.35,-58.06
2022/08/03 03:21:01+0000,-36.58,-43.42,-32.40,-46.98,-54.62,-57.91
2022/08/03 03:21:53+0000,-36.73,-43.79,-31.85,-45.00,-57.13,-58.14
2022/08/03 03:22:45+0000,-36.53,-44.01,-31.84,-48.10,-56.99,-57.97
2022/08/03 03:23:37+0000,-36.08,-44.03,-31.77,-48.36,-53.73,-58.09
2022/08/03 03:24:29+0000,-36.69,-43.70,-31.86,-46.74,-54.54,-58.55
2022/08/03 03:25:21+0000,-37.67,-44.23,-32.01,-46.40,-56.73,-57.96
2022/08/03 03:26:13+0000,-36.23,-44.17,-32.74,-48.80,-57.14,-58.34
2022/08/03 03:27:05+0000,-36.24,-44.73,-32.31,-49.88,-57.15,-58.35
2022/08/03 03:27:57+0000,-35.87,-43.73,-32.01,-45.49,-55.98,-58.15
2022/08/03 03:28:49+0000,-36.42,-43.03,-32.41,-50.86,-56.72,-58.43
2022/08/03 03:29:42+0000,-36.14,-42.98,-32.33,-48.60,-57.22,-58.31
2022/08/03 03:30:34+0000,-36.28,-42.22,-31.84,-49.63,-55.89,-57.65
2022/08/03 03:31:34+0000,-35.72,-43.11,-31.98,-50.44,-57.46,-58.28
2022/08/03 03:32:26+0000,-36.68,-44.00,-31.97,-46.41,-56.67,-58.52
2022/08/03 03:33:18+0000,-35.47,-43.03,-32.48,-48.29,-56.58,-57.72
2022/08/03 03:34:10+0000,-36.84,-43.41,-32.49,-48.22,-54.32,-58.37
2022/08/03 03:35:02+0000,-36.70,-41.79,-32.29,-45.97,-53.65,-58.46
2022/08/03 03:35:54+0000,-36.27,-42.75,-32.13,-47.84,-57.22,-58.34
2022/08/03 03:36:46+0000,-34.79,-41.90,-32.49,-47.41,-56.86,-58.21
2022/08/03 03:37:38+0000,-36.57,-42.41,-32.70,-48.95,-53.74,-57.64
2022/08/03 03:38:30+0000,-36.45,-41.39,-32.16,-48.69,-53.90,-58.22
2022/08/03 03:39:22+0000,-36.12,-42.25,-32.35,-48.41,-57.51,-58.17
2022/08/03 03:40:14+0000,-36.68,-41.02,-32.68,-49.08,-57.09,-58.09
2022/08/03 03:41:14+0000,-35.88,-41.89,-32.03,-49.45,-56.54,-58.21
2022/08/03 03:42:06+0000,-36.42,-41.97,-32.45,-48.65,-54.08,-58.62
2022/08/03 03:42:58+0000,-34.94,-41.16,-32.54,-48.95,-54.27,-58.49
2022/08/03 03:43:50+0000,-36.58,-41.60,-31.98,-49.71,-57.02,-57.61
2022/08/03 03:44:42+0000,-36.20,-41.86,-32.46,-49.45,-57.12,-57.79
2022/08/03 03:45:34+0000,-36.17,-41.18,-32.45,-50.32,-57.36,-58.33
2022/08/03 03:46:26+0000,-36.69,-41.54,-32.76,-45.18,-57.26,-58.35
2022/08/03 03:47:18+0000,-36.58,-40.30,-32.35,-48.88,-57.67,-57.51
2022/08/03 03:48:10+0000,-36.42,-42.47,-31.49,-48.77,-56.60,-58.27
2022/08/03 03:49:02+0000,-36.56,-41.50,-32.26,-44.37,-53.49,-57.92
2022/08/03 03:49:54+0000,-35.91,-43.32,-32.23,-43.98,-56.67,-57.72
2022/08/03 03:50:46+0000,-36.03,-41.32,-31.88,-48.83,-57.26,-58.12
2022/08/03 03:51:52+0000,-35.45,-41.37,-32.26,-46.08,-57.29,-57.87
2022/08/03 03:52:44+0000,-36.14,-40.54,-32.37,-48.76,-57.37,-58.06
2022/08/03 03:53:36+0000,-36.42,-41.74,-32.55,-50.23,-50.83,-57.88
2022/08/03 03:54:28+0000,-36.65,-42.38,-31.90,-45.44,-53.54,-58.55
2022/08/03 03:55:20+0000,-35.67,-40.83,-32.46,-50.44,-57.15,-57.87
2022/08/03 03:56:12+0000,-36.21,-42.10,-32.24,-46.44,-57.03,-57.98
2022/08/03 03:57:04+0000,-33.96,-42.72,-31.78,-47.99,-50.73,-58.00
2022/08/03 03:57:56+0000,-34.98,-41.75,-32.37,-46.01,-56.98,-57.67
2022/08/03 03:58:48+0000,-36.35,-41.76,-32.46,-46.68,-57.03,-57.66
2022/08/03 03:59:40+0000,-35.56,-41.64,-32.28,-46.31,-54.32,-57.41
2022/08/03 04:00:32+0000,-36.55,-41.23,-31.56,-44.23,-52.60,-57.58
2022/08/03 04:01:32+0000,-35.74,-41.20,-32.09,-49.42,-52.76,-58.08
2022/08/03 04:02:24+0000,-36.89,-41.20,-31.61,-46.58,-57.00,-57.90
2022/08/03 04:03:16+0000,-35.32,-41.15,-31.69,-47.80,-57.16,-58.41
2022/08/03 04:04:08+0000,-36.49,-42.74,-31.69,-47.49,-57.27,-58.15
2022/08/03 04:05:00+0000,-37.11,-41.17,-31.65,-48.80,-52.75,-58.24
2022/08/03 04:05:52+0000,-35.89,-41.44,-32.30,-47.04,-57.49,-58.67
2022/08/03 04:06:44+0000,-35.85,-40.03,-32.03,-47.79,-56.81,-58.04
2022/08/03 04:07:36+0000,-36.09,-41.44,-31.30,-44.33,-51.82,-58.22
2022/08/03 04:08:28+0000,-34.28,-42.34,-31.40,-44.36,-52.66,-58.26
2022/08/03 04:09:20+0000,-34.89,-42.86,-32.03,-47.40,-57.18,-58.24
2022/08/03 04:10:12+0000,-35.78,-42.74,-32.43,-45.94,-56.90,-58.19
2022/08/03 04:11:11+0000,-34.53,-43.10,-32.15,-48.98,-57.37,-58.89
2022/08/03 04:12:04+0000,-34.93,-41.99,-31.96,-50.40,-52.63,-58.95
2022/08/03 04:12:56+0000,-35.28,-43.10,-32.15,-44.82,-57.49,-58.05
2022/08/03 04:13:48+0000,-35.59,-42.75,-31.89,-49.11,-57.07,-58.20
2022/08/03 04:14:40+0000,-35.25,-42.59,-31.73,-45.91,-56.95,-58.28
2022/08/03 04:15:32+0000,-35.33,-43.44,-31.84,-44.97,-56.64,-58.44
2022/08/03 04:16:24+0000,-35.29,-42.39,-31.94,-50.09,-57.58,-57.57
2022/08/03 04:17:16+0000,-34.86,-43.12,-31.97,-45.27,-56.71,-58.09
2022/08/03 04:18:08+0000,-36.10,-43.56,-31.57,-46.66,-57.47,-58.39
2022/08/03 04:19:00+0000,-35.21,-42.90,-31.71,-48.27,-57.02,-57.84
2022/08/03 04:19:52+0000,-34.10,-43.49,-32.04,-47.69,-57.38,-58.17
2022/08/03 04:20:44+0000,-35.92,-42.33,-31.68,-48.55,-57.04,-58.37
2022/08/03 04:21:44+0000,-33.82,-43.02,-32.24,-48.36,-57.49,-58.15
2022/08/03 04:22:36+0000,-35.20,-43.67,-32.41,-48.46,-57.45,-58.46
2022/08/03 04:23:28+0000,-34.29,-43.78,-31.64,-47.49,-56.81,-57.84
2022/08/03 04:24:20+0000,-33.70,-42.71,-32.33,-50.79,-57.32,-58.62
2022/08/03 04:25:12+0000,-34.94,-43.02,-32.38,-47.34,-57.06,-58.17
2022/08/03 04:26:04+0000,-35.41,-43.28,-30.79,-50.73,-57.04,-58.80
2022/08/03 04:26:56+0000,-34.64,-43.20,-31.85,-47.76,-57.21,-58.99
2022/08/03 04:27:48+0000,-34.28,-43.14,-31.86,-50.25,-57.05,-58.15
2022/08/03 04:28:40+0000,-35.93,-43.28,-32.08,-47.53,-56.83,-57.93
2022/08/03 04:29:32+0000,-35.84,-42.05,-31.36,-49.55,-57.49,-58.19
2022/08/03 04:30:24+0000,-34.33,-44.07,-31.28,-47.81,-57.00,-58.41
2022/08/03 04:31:23+0000,-35.43,-43.03,-31.70,-45.88,-57.41,-57.89
2022/08/03 04:32:15+0000,-34.57,-43.37,-32.93,-48.47,-56.98,-58.23
2022/08/03 04:33:07+0000,-33.91,-43.46,-32.33,-48.24,-57.32,-58.10
2022/08/03 04:34:00+0000,-34.36,-42.22,-32.18,-47.82,-56.72,-58.18
2022/08/03 04:34:52+0000,-34.76,-42.88,-31.48,-47.74,-57.27,-58.13
2022/08/03 04:35:44+0000,-35.15,-42.72,-32.02,-49.08,-57.27,-57.82
2022/08/03 04:36:36+0000,-35.07,-43.40,-31.56,-49.37,-56.79,-58.11
2022/08/03 04:37:28+0000,-34.88,-43.45,-31.90,-47.66,-56.85,-58.20
2022/08/03 04:38:20+0000,-35.12,-42.50,-31.87,-50.30,-56.65,-58.05
2022/08/03 04:39:12+0000,-34.94,-43.24,-30.91,-49.33,-56.38,-57.69
2022/08/03 04:40:04+0000,-35.09,-43.38,-31.50,-49.40,-56.38,-58.35
2022/08/03 04:41:03+0000,-34.50,-42.58,-32.28,-49.73,-56.54,-58.22
2022/08/03 04:41:55+0000,-34.83,-43.30,-32.47,-47.76,-56.29,-57.58
2022/08/03 04:42:47+0000,-34.64,-43.85,-32.06,-48.78,-55.95,-58.36
2022/08/03 04:43:39+0000,-35.33,-42.69,-32.21,-48.24,-56.10,-58.25
2022/08/03 04:44:31+0000,-34.88,-41.95,-32.02,-48.92,-56.22,-57.88
2022/08/03 04:45:23+0000,-36.50,-42.46,-32.41,-48.65,-55.77,-58.05
2022/08/03 04:46:15+0000,-34.68,-42.62,-32.22,-48.97,-55.85,-58.11
2022/08/03 04:47:07+0000,-35.16,-43.20,-31.99,-50.23,-56.41,-57.41